Temperature
17 17 17 17 17 17 17 17 18 18 18 18 17 17 17 17 17 16 16 16 16 16 16 16 16 16 16 16 16 16 16 15 15 15 15 15 15 15
17 17 17 17 17 17 17 17 17 17 18 18 17 17 17 16 16 16 16 16 16 16 16 16 16 16 16 16 16 16 15 15 15 15 15 15 15 15
16 16 16 16 16 16 16 16 16 16 17 17 17 17 16 16 16 16 16 16 16 16 16 16 16 16 16 16 15 15 15 15 15 15 15 15 15 15
16 16 16 16 16 16 16 16 16 16 16 16 16 16 16 16 15 16 16 16 16 16 16 16 16 15 15 15 15 15 15 15 15 15 15 15 15 14
16 15 15 15 15 15 15 15 15 16 15 15 16 16 16 16 15 15 15 15 15 15 15 15 15 15 15 15 15 15 15 14 14 14 14 14 14 14
15 15 15 15 15 15 15 15 15 15 15 15 15 15 15 15 15 15 15 15 15 15 15 15 15 15 15 15 15 14 14 14 14 14 14 14 14 14
15 15 15 15 15 15 15 14 14 15 15 15 15 15 15 15 15 15 15 15 15 14 14 14 14 14 14 14 14 14 14 14 14 14 14 14 14 14
14 15 15 14 14 14 15 14 14 14 14 14 14 14 14 14 14 14 14 14 14 14 14 14 14 14 14 14 14 14 14 14 14 13 13 13 13 13
14 14 14 14 14 14 14 14 14 14 14 14 14 14 13 14 13 13 13 13 13 13 13 13 13 13 13 13 13 13 13 13 13 13 13 13 13 13
14 14 13 14 13 13 13 13 13 13 13 13 13 13 13 13 13 13 13 13 13 13 13 13 13 13 13 13 13 13 13 13 13 13 12 12 12 12
13 13 13 13 13 13 13 12 12 13 13 13 13 13 13 13 13 13 12 13 13 13 13 13 13 13 13 12 13 13 12 12 12 12 12 12 12 12
13 13 13 13 13 13 12 12 12 12 12 12 12 12 13 13 13 13 12 13 13 13 13 12 12 12 12 12 12 12 12 12 12 12 12 12 12 12
13 13 13 13 12 12 12 12 12 12 12 12 12 12 12 12 12 12 12 12 12 12 12 12 12 12 12 12 12 12 11 11 11 11 11 11 11 11
12 12 12 12 12 12 12 12 12 11 11 12 12 12 12 12 12 12 12 12 12 12 12 12 11 11 11 11 11 11 11 11 11 11 11 11 11 11
12 12 12 12 11 11 11 11 11 11 11 11 12 11 11 11 11 11 11 11 11 11 11 11 11 11 11 11 11 11 11 10 10 10 10 10 10 10
11 11 11 11 11 11 11 11 11 11 11 11 11 11 11 11 11 11 11 10 11 11 11 11 11 11 10 10 10 10 10 10 10 10 10 10 10 10
11 11 11 11 11 11 11 10 10 10 10 10 11 11 10 10 10 10 10 10 10 10 10 10 10 10 10 10 10 10 10 10 10 10 9 9 9 9
10 10 11 11 11 11 11 10 10 10 10 10 10 10 10 10 10 10 10 10 10 10 10 10 10 10 10 10 9 9 9 9 9 9 9 9 9 9
10 10 10 10 10 10 10 10 10 10 10 9 10 10 9 9 10 9 9 9 9 9 9 9 9 9 9 10 9 9 9 9 9 9 9 9 9 9
10 10 10 10 10 10 10 10 10 9 9 9 9 9 9 9 9 9 9 9 9 9 9 9 9 9 9 9 9 8 8 8 8 9 8 8 8 8
10 10 10 10 10 9 9 9 9 9 9 9 9 9 9 9 9 9 9 8 8 8 8 8 8 8 8 8 8 8 8 8 8 8 8 8 8 8
10 9 9 9 9 9 9 9 9 9 9 8 8 8 8 8 8 8 8 8 8 8 8 8 8 8 8 8 8 8 8 8 7 8 8 8 8 8
9 9 9 9 8 8 8 8 8 8 8 8 8 8 8 8 8 8 8 8 8 8 8 8 8 8 8 8 8 8 8 7 7 7 7 7 7 7
Wind_Speed
3 3 3 3 3 3 4 5 5 5 4 3 3 2 3 3 2 3 3 4 6 6 7 7 7 8 8 9 9 9 9 9 9 10 10 10 11 11
3 3 4 3 3 3 4 4 5 6 5 4 3 3 3 4 2 4 4 5 8 7 7 7 7 8 8 9 9 9 9 9 9 9 9 8 9 10
3 3 3 4 4 3 3 4 4 4 5 5 4 3 3 5 3 4 5 5 4 7 7 7 7 7 8 8 8 9 9 9 9 9 10 9 8 8
4 4 4 3 3 4 4 4 4 4 6 6 6 4 4 5 4 5 5 4 4 5 7 7 7 6 7 7 7 8 8 8 8 8 9 9 9 8
4 4 4 4 4 4 4 4 5 4 5 6 6 4 5 4 4 5 5 4 5 4 7 7 6 6 6 6 6 7 7 7 8 8 8 9 8 8
3 3 4 4 5 5 4 5 5 5 5 6 6 5 4 4 4 5 4 4 4 4 2 3 5 7 7 6 6 6 6 7 7 7 7 8 8 8
3 3 3 2 3 4 5 4 5 5 5 5 5 5 4 4 4 5 5 4 3 3 3 2 2 2 3 5 6 6 6 6 6 7 7 7 8 8
3 3 3 3 3 4 3 4 5 6 6 6 5 5 5 5 5 5 5 5 4 2 3 3 2 2 1 1 3 4 5 5 6 6 7 7 7 7
3 3 4 2 2 3 3 5 5 5 6 6 6 7 6 6 6 6 5 6 5 4 4 5 3 3 2 1 6 5 4 4 4 5 5 6 6 6
3 3 4 4 4 4 5 4 5 4 4 5 6 6 6 6 6 7 6 6 6 4 4 5 4 3 2 1 6 6 6 5 4 4 4 5 5 6
4 3 4 4 3 4 5 5 5 5 3 4 4 5 6 6 6 5 6 5 5 4 3 4 4 3 2 2 3 7 6 6 6 5 5 5 5 6
4 4 2 2 2 3 4 5 5 5 5 4 4 6 6 5 5 5 6 6 5 4 2 3 4 3 3 2 0 1 3 5 7 7 7 6 6 5
4 3 1 3 1 3 6 5 5 6 6 6 5 5 4 3 3 3 4 5 6 5 3 3 4 4 4 2 1 1 1 1 2 3 6 7 7 5
4 3 1 3 2 4 4 4 6 7 6 5 5 4 4 3 3 3 3 3 4 5 5 5 5 4 5 4 3 2 1 1 2 2 2 5 6 6
3 1 1 3 5 5 5 6 7 5 5 5 5 4 4 3 3 2 3 3 3 3 4 5 5 5 5 5 4 2 2 2 2 2 2 3 3 3
3 3 6 8 7 4 4 5 4 4 4 5 5 4 4 3 3 3 4 3 3 3 2 3 4 5 5 5 4 4 3 2 2 2 2 3 3 3
2 3 4 4 4 4 4 3 3 3 4 4 5 4 4 3 3 3 4 4 4 4 3 2 2 3 3 4 4 3 3 2 2 2 3 3 3 3
3 4 4 5 4 4 4 4 4 4 4 4 4 4 4 4 4 4 3 4 4 4 3 3 2 2 3 2 1 4 3 3 3 3 4 3 3 3
5 5 4 5 5 5 5 4 4 4 4 4 4 4 4 4 4 4 4 4 4 4 4 3 3 3 4 4 2 2 3 3 3 3 3 3 3 3
5 5 5 5 5 5 5 5 4 4 4 4 4 4 4 4 4 4 4 4 5 5 4 4 4 4 5 5 4 3 3 4 4 4 3 3 2 1
4 4 4 5 5 5 5 5 5 4 4 4 4 4 5 5 5 5 4 4 5 5 5 4 3 4 5 4 4 3 2 2 3 4 4 4 3 4
4 4 4 4 4 4 4 4 5 5 5 5 5 5 5 5 5 5 5 5 5 5 5 4 3 4 4 5 4 4 3 2 2 3 3 4 4 4
4 4 4 4 4 4 4 5 6 5 5 5 5 5 5 5 5 5 6 6 5 5 5 4 4 4 4 4 4 4 4 4 3 3 2 2 4 5
Wind_Direction
266 254 266 270 268 274 275 275 279 285 284 260 258 270 264 244 218 244 250 187 200 213 221 225 231 232 233 231 231 232 234 238 239 237 235 233 233 233
288 295 283 277 279 274 277 279 280 282 286 297 289 290 299 278 221 259 260 212 206 207 216 223 230 234 233 230 229 229 230 233 236 233 231 233 233 231
282 275 274 288 281 278 282 287 285 280 278 286 293 297 286 282 282 268 260 251 224 195 211 223 229 234 231 225 228 225 224 228 228 227 224 225 227 229
279 274 271 270 278 284 287 285 283 280 275 280 287 287 275 269 271 269 265 257 258 190 194 212 225 230 227 221 219 222 224 226 223 224 220 218 221 221
279 272 274 280 281 288 285 284 280 277 275 275 279 283 279 279 278 270 270 270 265 212 192 207 219 223 225 223 221 218 219 222 222 222 218 216 218 218
290 279 278 280 280 283 278 278 284 286 276 275 281 282 280 282 277 278 277 262 269 281 257 217 202 205 215 218 219 218 219 222 222 217 213 214 212 210
292 286 279 293 315 297 295 297 289 282 282 282 285 289 296 304 295 291 285 283 277 289 281 267 228 225 213 209 215 218 220 222 220 215 213 211 209 207
277 285 271 242 236 232 274 300 302 286 291 291 288 296 303 300 302 294 295 289 285 296 286 277 269 264 268 244 159 176 201 214 216 213 212 210 206 203
269 275 279 291 279 275 244 229 248 253 262 277 288 294 298 304 302 291 290 288 288 289 281 279 272 266 261 169 146 163 183 198 201 203 205 201 198 201
260 268 279 290 300 307 290 287 284 277 260 259 279 286 294 303 292 282 279 274 270 264 264 271 273 271 264 180 150 165 179 193 199 200 199 200 202 205
253 255 263 274 325 311 281 280 286 286 247 233 266 277 297 297 289 280 274 270 276 276 266 269 276 273 266 241 163 172 185 192 196 198 200 200 204 213
241 235 215 260 307 298 276 280 284 292 299 288 256 249 260 257 237 256 274 273 276 282 282 270 277 280 270 248 199 162 188 189 195 201 197 193 198 220
248 248 234 128 236 278 278 279 295 299 289 282 279 281 278 285 282 276 281 278 281 281 299 275 278 278 275 280 275 269 255 243 207 203 197 194 197 218
253 254 124 115 261 275 276 294 292 282 278 279 281 286 288 292 303 306 303 294 294 291 295 292 281 280 277 277 283 283 258 259 249 232 218 188 193 202
255 68 130 211 241 247 236 257 267 268 276 281 283 290 297 304 299 287 278 258 264 284 288 285 280 277 271 271 274 274 278 275 254 248 235 221 219 207
236 184 197 218 235 253 249 246 259 278 285 284 289 295 296 290 286 297 298 289 285 290 276 280 272 272 273 271 265 261 260 256 257 263 258 251 232 223
250 247 255 251 249 250 255 263 268 266 268 274 277 278 282 290 296 297 299 296 289 290 300 292 267 245 262 274 263 259 264 265 253 243 247 249 242 228
240 246 257 264 267 267 267 264 264 272 280 282 280 283 285 288 289 290 292 287 284 284 290 292 289 266 249 266 275 262 261 265 266 239 237 241 251 251
230 251 258 262 265 266 268 269 267 272 279 276 276 279 282 283 286 288 288 287 285 284 281 279 276 271 268 269 270 258 268 266 257 244 243 254 254 248
244 257 263 266 266 266 266 269 269 268 261 264 269 274 277 278 281 281 280 288 290 287 282 276 275 274 272 274 278 275 241 249 253 248 246 257 255 151
252 258 264 268 266 263 261 262 264 266 266 266 268 271 274 274 276 275 273 266 274 280 283 283 285 263 262 263 260 260 260 218 245 253 252 254 247 233
257 261 267 276 277 275 272 270 268 262 259 257 264 268 269 269 268 268 270 266 264 272 281 284 264 254 259 262 265 264 260 238 211 215 235 261 261 254
261 267 269 270 267 264 267 269 275 276 271 268 267 265 266 266 266 266 264 265 267 267 270 275 278 270 264 256 259 260 249 237 228 226 231 224 210 214
Height
1538 1537 1536 1536 1536 1536 1536 1536 1536 1534 1533 1532 1532 1532 1531 1530 1529 1528 1527 1526 1525 1525 1524 1524 1524 1523 1523 1524 1524 1524 1525 1525 1526 1527 1527 1528 1529 1529
1535 1534 1533 1534 1534 1534 1533 1533 1533 1532 1531 1530 1530 1529 1528 1527 1526 1525 1524 1523 1522 1522 1521 1521 1521 1520 1520 1520 1520 1520 1520 1521 1521 1522 1523 1524 1524 1525
1533 1532 1531 1530 1531 1531 1530 1530 1530 1529 1528 1527 1527 1526 1524 1523 1523 1522 1521 1521 1520 1519 1518 1518 1517 1517 1516 1516 1515 1515 1516 1516 1517 1518 1518 1519 1520 1521
1530 1529 1529 1529 1528 1527 1527 1527 1526 1525 1525 1524 1524 1523 1522 1520 1519 1518 1518 1518 1517 1516 1515 1514 1514 1513 1512 1512 1511 1511 1511 1512 1513 1513 1514 1515 1516 1517
1527 1527 1526 1526 1525 1525 1524 1524 1523 1523 1522 1521 1520 1520 1519 1518 1516 1516 1515 1514 1514 1513 1511 1510 1510 1509 1509 1508 1508 1507 1507 1508 1509 1509 1510 1511 1512 1513
1525 1524 1523 1523 1523 1522 1522 1521 1520 1520 1519 1518 1518 1517 1516 1515 1514 1513 1512 1511 1510 1510 1508 1507 1506 1505 1505 1504 1504 1504 1504 1504 1505 1505 1506 1507 1508 1509
1522 1521 1521 1520 1520 1520 1520 1518 1518 1517 1516 1516 1515 1514 1513 1512 1511 1510 1509 1508 1507 1506 1506 1505 1504 1503 1502 1501 1500 1500 1500 1501 1501 1502 1502 1503 1504 1505
1519 1518 1518 1518 1517 1516 1516 1515 1514 1514 1513 1513 1512 1511 1510 1509 1508 1507 1506 1505 1504 1504 1503 1502 1501 1500 1499 1498 1497 1497 1497 1497 1498 1498 1499 1499 1500 1501
1517 1516 1516 1516 1515 1514 1513 1511 1511 1510 1510 1509 1509 1507 1507 1506 1505 1504 1502 1502 1501 1500 1499 1499 1498 1497 1496 1496 1495 1494 1494 1494 1494 1495 1495 1496 1496 1497
1514 1513 1513 1511 1511 1510 1510 1509 1508 1507 1507 1506 1505 1504 1504 1502 1501 1500 1499 1498 1497 1497 1496 1496 1495 1495 1494 1493 1492 1491 1491 1491 1491 1492 1492 1493 1493 1494
1511 1511 1510 1509 1508 1507 1507 1506 1505 1505 1504 1503 1502 1501 1499 1498 1498 1497 1497 1496 1495 1494 1493 1493 1492 1492 1491 1490 1489 1489 1488 1488 1489 1489 1490 1490 1490 1491
1508 1508 1506 1506 1505 1504 1504 1503 1503 1502 1501 1500 1499 1497 1496 1495 1494 1493 1493 1493 1492 1491 1490 1490 1489 1489 1489 1488 1487 1487 1486 1486 1486 1486 1487 1487 1488 1488
1506 1506 1504 1502 1502 1501 1501 1501 1500 1499 1498 1497 1496 1495 1494 1493 1492 1491 1490 1489 1489 1488 1488 1487 1487 1486 1486 1486 1485 1484 1484 1483 1483 1483 1484 1484 1484 1485
1502 1502 1501 1500 1499 1499 1498 1497 1496 1495 1495 1495 1494 1493 1491 1490 1488 1487 1486 1485 1485 1484 1484 1484 1483 1483 1483 1482 1482 1482 1481 1481 1481 1481 1481 1481 1481 1482
1498 1498 1497 1496 1496 1496 1495 1494 1493 1493 1492 1492 1491 1490 1489 1487 1486 1484 1483 1482 1481 1480 1480 1480 1480 1480 1480 1479 1479 1479 1478 1478 1478 1478 1478 1478 1478 1478
1495 1494 1494 1493 1493 1492 1491 1491 1490 1490 1489 1489 1488 1487 1486 1485 1484 1483 1482 1481 1480 1478 1477 1476 1476 1476 1476 1476 1476 1475 1475 1475 1475 1475 1475 1474 1475 1475
1491 1492 1492 1491 1491 1490 1489 1488 1488 1487 1486 1486 1485 1484 1483 1482 1481 1480 1479 1478 1477 1476 1475 1474 1473 1473 1472 1472 1472 1472 1472 1472 1472 1472 1472 1472 1471 1472
1488 1488 1488 1488 1488 1487 1486 1486 1485 1484 1483 1483 1482 1481 1480 1479 1479 1478 1477 1476 1475 1473 1472 1471 1471 1470 1470 1469 1470 1469 1469 1469 1469 1469 1469 1470 1469 1469
1485 1485 1485 1485 1484 1483 1483 1482 1482 1481 1480 1479 1479 1478 1477 1476 1476 1475 1474 1473 1472 1471 1470 1469 1468 1468 1468 1467 1466 1467 1466 1466 1466 1466 1467 1467 1466 1467
1481 1482 1481 1481 1480 1480 1479 1478 1478 1477 1476 1476 1475 1475 1474 1474 1473 1472 1471 1470 1469 1468 1467 1466 1466 1465 1465 1464 1463 1463 1463 1463 1463 1463 1463 1464 1464 1464
1478 1478 1478 1477 1477 1476 1475 1474 1474 1473 1473 1472 1472 1471 1471 1470 1469 1469 1468 1467 1466 1465 1464 1463 1462 1462 1461 1461 1460 1460 1460 1460 1460 1460 1460 1461 1461 1461
1475 1475 1474 1473 1473 1472 1471 1471 1470 1470 1469 1469 1468 1468 1467 1467 1466 1465 1465 1464 1463 1462 1461 1460 1459 1459 1459 1458 1457 1457 1456 1456 1456 1456 1457 1457 1457 1457
1472 1471 1470 1470 1470 1469 1468 1467 1467 1466 1466 1465 1465 1464 1464 1463 1462 1461 1461 1460 1459 1458 1458 1457 1456 1456 1455 1454 1454 1453 1453 1453 1453 1453 1454 1453 1454 1454